Regional Weather Roundup
Issued by NWS

Home | Current Version | Previous Version | Graphics & Text | Print | Product List | Glossary On
Versions: 1 2 3 4 5 6 7 8 9 10 11 12 13 14 15 16 17 18 19 20 21 22 23 24 25 26 27 28 29 30 31 32 33 34 35 36 37 38 39 40 41 42 43 44 45 46 47 48 49 50
000
ASUS43 KDMX 241201
RWRIA

WEATHER ROUNDUP FOR IOWA
NATIONAL WEATHER SERVICE DES MOINES IA
700 AM CDT SAT JUN 24 2017

NOTE: "FAIR" INDICATES FEW OR NO CLOUDS BELOW 12,000 FEET WITH NO
SIGNIFICANT WEATHER AND/OR OBSTRUCTIONS TO VISIBILITY.

* - THESE STATIONS ARE NOT NWS STATIONS...THUS NOT UNDER NWS
QUALITY CONTROL.  THEY ALSO DO NOT REPORT WEATHER SUCH
AS PRECIPITATION OR FOG.

IAZ001>003-012>014-020>022-031>034-043>046-241300-
   NORTHWEST IOWA

CITY           SKY/WX    TMP DP  RH WIND       PRES   REMARKS
CARROLL *      SUNNY     52  45  76 W9        30.12S
DENISON *      SUNNY     50  43  76 CALM      30.16R
LE MARS *      SUNNY     50  43  76 SW5       30.14S
ORANGE CITY *  SUNNY     48  43  81 W5        30.13R
SHELDON *      SUNNY     50  45  81 W5        30.10S
SIOUX CITY     SUNNY     50  43  77 NW5       30.15R
6HR MIN TEMP:  44; 6HR MAX TEMP:  54;

SPENCER        SUNNY     50  45  83 W3        30.11R
6HR MIN TEMP:  46; 6HR MAX TEMP:  52;

STORM LAKE *   SUNNY     50  43  76 W8        30.13R
$$

IAZ055>058-069>071-079>083-090>094-241300-
   SOUTHWEST IOWA

CITY           SKY/WX    TMP DP  RH WIND       PRES   REMARKS
ATLANTIC *     SUNNY     52  46  82 CALM      30.14R
AUDUBON *      SUNNY     54  45  71 NW3       30.14R
CLARINDA *     SUNNY     54  52  94 CALM      30.17R
COUNCIL BLFS * SUNNY     55  46  71 NW6       30.16S
CRESTON *      SUNNY     52  48  87 NW5       30.15R
HARLAN  *      SUNNY     52  46  82 NW7       30.18R
LAMONI         SUNNY     56  47  71 NW8       30.12R
6HR MIN TEMP:  54; 6HR MAX TEMP:  61;

SHENANDOAH *   SUNNY     52  50  93 CALM      30.16S
$$

IAZ047>049-059>061-072>074-084-241300-
   CENTRAL IOWA

CITY           SKY/WX    TMP DP  RH WIND       PRES   REMARKS
AMES           SUNNY     56  47  71 W9        30.09R
6HR MIN TEMP:  54; 6HR MAX TEMP:  60;

BOONE *        SUNNY     54  45  71 W10       30.09R
DES MOINES     SUNNY     57  46  66 W7        30.09R
6HR MIN TEMP:  54; 6HR MAX TEMP:  62;

GRINNELL*      SUNNY     55  48  78 W9        30.08R
MARSHALLTOWN   SUNNY     53  49  86 W7        30.06R
6HR MIN TEMP:  51; 6HR MAX TEMP:  58;

NEWTON *       SUNNY     55  48  76 NW8       30.08R
PELLA *        SUNNY     58  49  72 NW12      30.09R
PERRY *          N/A     52  47  82 NW7       30.11R
$$

IAZ004>006-015-016-023>025-035-036-241300-
   NORTH CENTRAL IOWA

CITY           SKY/WX    TMP DP  RH WIND       PRES   REMARKS
ALGONA *       SUNNY     54  46  76 NW9       30.09R
CLARION *        N/A     52  48  87 W9        30.08R
ESTHERVILLE    SUNNY     50  45  83 NW9       30.08R
6HR MIN TEMP:  47; 6HR MAX TEMP:  52;

FORT DODGE *   SUNNY     52  43  71 W3        30.10S
MASON CITY     SUNNY     52  44  74 W13       30.07R
6HR MIN TEMP:  49; 6HR MAX TEMP:  57;

FOREST CITY *    N/A     52  43  71 NW8       30.06R
WEBSTER CITY * SUNNY     54  46  76 W9        30.07R
IOWA FALLS *     N/A     53  48  84 W9        30.08R
$$

IAZ007>011-017>019-026>030-037>042-050>054-066-241300-
   NORTHEAST IOWA

CITY           SKY/WX    TMP DP  RH WIND       PRES   REMARKS
CEDAR RAPIDS   SUNNY     55  53  93 W10       30.02R
6HR MIN TEMP:  52; 6HR MAX TEMP:  61;

CLINTON *      SUNNY     59  54  83 W12       29.99R
DUBUQUE        SUNNY     57  50  77 W9        29.99R
6HR MIN TEMP:  54; 6HR MAX TEMP:  60;

WATERLOO       SUNNY     56  46  69 NW10      30.02R
6HR MIN TEMP:  54; 6HR MAX TEMP:  60;

$$

IAZ064-065-067-068-078-241300-
   EAST CENTRAL IOWA

CITY           SKY/WX    TMP DP  RH WIND       PRES   REMARKS
DAVENPORT      SUNNY     58  53  84 W13       30.00R
6HR MIN TEMP:  56; 6HR MAX TEMP:  61;

IOWA CITY      SUNNY     58  52  80 W8        30.05R
6HR MIN TEMP:  54; 6HR MAX TEMP:  64;

MUSCATINE *    SUNNY     61  52  72 NW13      30.03R
QUAD CITIES    SUNNY     62  51  67 NW14      30.00R
6HR MIN TEMP:  61; 6HR MAX TEMP:  65;

$$

IAZ062-063-075>077-085>089-095>099-241300-
   SOUTHEAST IOWA

CITY           SKY/WX    TMP DP  RH WIND       PRES   REMARKS
BURLINGTON     MOSUNNY   60  53  77 NW6       30.04R
6HR MIN TEMP:  58; 6HR MAX TEMP:  65;

FAIRFIELD *    SUNNY     59  50  72 W12       30.05S
KEOKUK *       SUNNY     59  52  77 NW6       30.05R
OTTUMWA        SUNNY     57  53  86 W8        30.07R
6HR MIN TEMP:  52; 6HR MAX TEMP:  60;

WASHINGTON *   SUNNY     57  52  82 W10       30.06R
$$

ABBREVIATIONS USED IN REMARKS
   TC - TEMPERATURES IN CELSIUS
  WCI - WIND CHILL INDEX
   HX - HEAT INDEX
  VSB - VISIBILITY
$$




USA.gov is the U.S. government's official web portal to all federal, state and local government web resources and services.